Location: Moscow Pond
(43.6842°N, 73.2366°W)
Time: 20:26:22
(UTC+00:00)

USA 267 - Pass Details

Date: 08 November 2025
Orbit: 1100 x 1108 km, 123.0° (Epoch: 21 November)

Event Time Altitude Azimuth Distance (km) Brightness Sun altitude
Rises 08:33:58 0° 48° (NE) 3,922 6.9 -33.5°
Reaches altitude 10° 08:36:28 10° 47° (NE) 2,962 6.1 -33.0°
Enters shadow 08:42:21 67° 1° (N) 1,187 3.3 -32.0°
